Wind_Speed
15 15 15 15 16 17 16 14 15 15 14 13 14 16 16 15 15 14 14 13 13 12 12 11 10 9 8 7 6 5 5 5 5 5 5 4 3 2 2 4 4 3 4 4 5 5 5 5 4 5 6 6 5 6 5 6 7 6 5 5 4 4 4 4 5 6 5 4 4 2 1 1 1 1 2 4 6 6 7 8 9 9 9 11 12
14 15 16 16 17 18 17 15 16 17 15 14 16 17 17 17 15 15 14 14 14 13 12 12 11 9 8 7 6 6 5 5 4 5 5 3 3 2 2 2 2 1 2 2 2 2 3 3 2 2 3 4 5 4 2 4 4 3 4 5 4 5 4 4 5 5 5 3 2 1 1 1 0 3 4 5 6 5 5 8 9 9 9 9 11
11 12 13 16 18 19 19 17 18 18 16 15 16 18 18 18 16 15 15 15 15 14 13 13 12 10 9 9 8 6 5 5 4 4 4 2 1 0 0 1 1 1 1 1 1 1 1 1 0 1 1 2 2 2 2 3 2 2 3 4 4 5 5 5 4 4 5 3 2 2 2 2 1 2 4 6 6 4 4 7 8 10 12 10 10
8 9 11 15 17 18 19 19 19 19 17 15 17 18 18 18 17 16 16 16 16 15 14 13 13 12 11 9 9 8 6 5 5 4 3 2 2 3 3 3 3 3 3 3 3 3 2 2 2 2 2 1 1 1 2 2 3 2 3 3 4 4 4 4 3 2 4 3 3 3 2 2 0 0 3 5 7 6 4 7 9 9 12 12 12
8 7 8 13 17 18 19 20 20 20 19 16 17 18 18 17 17 17 17 17 16 15 15 15 14 13 12 11 10 9 8 8 8 8 7 6 6 6 6 6 7 7 7 7 6 6 6 5 4 4 4 4 4 3 4 4 4 4 4 4 4 4 3 3 2 2 3 4 3 3 2 1 0 2 3 2 5 6 5 8 11 13 15 16 16
7 6 7 11 14 16 18 19 18 19 19 17 17 19 18 17 17 18 18 18 17 17 16 16 15 14 13 13 13 13 12 12 12 11 10 11 11 10 9 9 9 10 10 9 7 8 8 7 6 7 7 6 7 7 7 6 6 5 5 5 5 5 5 4 4 3 3 4 4 3 2 3 2 5 5 5 6 5 5 7 10 13 17 20 21
5 5 7 9 11 13 15 17 16 15 17 18 18 19 19 17 17 17 18 18 17 16 16 16 15 14 14 14 15 16 15 15 14 13 13 13 13 12 11 10 10 10 11 11 9 9 9 9 9 8 8 8 9 9 9 9 9 8 7 7 7 7 7 7 6 5 4 5 5 5 5 4 4 4 6 9 9 7 6 9 10 10 13 19 22
5 5 6 7 9 10 11 13 15 16 16 17 18 18 18 18 17 18 18 17 15 15 15 16 16 16 15 16 16 16 16 16 16 16 14 13 13 13 12 10 10 10 10 11 12 13 12 12 11 10 9 9 10 10 10 11 12 12 11 11 10 10 9 8 8 7 7 7 7 7 7 7 6 6 7 7 6 5 9 15 15 12 13 19 20
6 6 6 6 8 8 8 9 12 14 15 14 16 17 17 17 17 18 19 18 15 14 15 15 16 16 16 16 16 16 15 16 16 15 14 13 13 11 9 8 8 9 8 9 13 13 12 13 13 13 13 13 14 13 14 15 16 17 17 16 15 13 11 11 10 9 9 10 10 9 9 9 9 7 7 7 8 10 16 19 18 16 17 19 17
5 5 5 6 7 7 6 6 7 9 10 10 13 15 16 16 17 18 20 19 17 15 14 15 15 15 15 15 15 15 15 15 15 14 12 11 8 6 5 4 4 4 4 5 8 8 6 7 9 11 13 15 16 16 16 17 19 19 20 20 19 17 15 14 12 11 11 11 10 10 10 10 11 11 11 12 14 17 17 17 17 18 18 18 18
6 6 6 6 6 6 6 6 7 7 7 7 9 12 13 14 14 16 17 17 17 16 16 16 15 14 13 12 13 13 13 12 10 8 7 6 4 3 3 3 3 2 2 3 4 4 4 4 5 6 8 10 11 12 12 13 16 17 19 20 20 19 18 16 13 12 13 11 10 12 13 12 14 14 12 11 12 14 17 18 19 19 18 20 22
6 6 6 5 5 6 5 5 6 7 7 7 8 8 9 10 11 12 13 14 15 14 14 12 10 8 8 8 8 9 8 7 6 5 4 4 3 3 3 3 3 2 2 2 2 3 4 4 5 6 6 8 10 10 10 11 12 14 16 18 19 20 21 19 15 14 16 15 14 16 16 15 13 12 11 11 11 14 18 19 18 17 20 24 26
8 7 6 5 5 5 3 3 4 5 6 7 7 7 8 10 11 12 12 12 11 10 9 8 6 6 6 6 7 7 7 7 6 5 4 4 5 5 4 4 3 3 3 2 2 3 3 4 4 6 7 9 9 9 9 11 13 13 14 15 17 19 21 21 20 19 19 17 15 15 16 16 15 14 16 17 18 19 21 21 20 22 26 28 29
9 9 8 7 7 6 5 4 4 4 5 5 5 6 7 9 9 9 9 9 8 8 7 7 7 7 7 7 8 8 7 6 6 5 5 6 6 5 5 4 4 4 4 4 3 4 4 4 5 6 8 9 10 9 9 10 13 14 14 15 16 17 19 20 21 21 20 17 15 16 17 17 17 18 19 19 20 22 23 24 25 27 29 32 34
9 9 8 9 9 8 7 7 6 5 5 5 5 6 7 7 8 9 9 8 8 8 9 9 8 8 8 8 7 7 6 5 5 5 5 5 4 3 3 4 4 5 5 6 6 6 6 6 7 8 10 12 12 11 10 10 12 13 14 14 15 16 16 16 17 18 19 18 18 18 18 18 18 19 21 21 23 25 25 27 28 30 31 31 30
8 8 8 8 8 7 7 8 8 7 7 7 7 7 7 8 8 9 10 9 10 10 10 9 8 8 8 7 5 5 5 4 3 3 3 3 3 3 4 4 4 5 6 6 7 7 7 8 8 10 11 12 13 13 12 11 12 12 12 12 12 12 11 12 14 17 18 19 19 20 19 19 20 21 22 23 24 25 26 27 27 25 23 22 20
7 6 6 6 5 6 6 7 8 8 8 8 8 7 6 6 7 8 8 9 9 9 9 8 8 7 7 6 5 4 3 3 3 3 4 5 4 3 2 3 4 6 6 6 7 7 8 8 8 9 11 12 12 12 12 11 10 9 8 7 8 8 10 12 15 17 19 19 20 20 20 21 22 23 24 25 25 26 26 25 21 17 17 19 20
4 4 4 3 4 4 5 5 6 7 8 9 9 7 6 7 7 7 8 8 9 9 9 8 7 6 5 4 4 4 4 4 4 5 6 6 6 3 1 2 4 6 6 7 7 7 7 8 9 9 11 12 12 11 11 8 5 4 5 5 5 7 10 14 16 18 19 20 20 21 22 23 24 25 27 27 28 28 27 25 23 21 20 20 19
2 2 2 3 4 4 5 6 6 7 8 9 10 10 10 11 10 8 8 9 9 9 8 7 7 6 6 5 4 4 4 5 6 6 6 7 6 2 0 1 2 3 4 5 7 8 8 8 9 9 10 11 11 10 8 5 3 4 5 6 6 8 11 15 17 18 20 20 21 22 23 25 27 29 30 30 30 29 28 27 26 22 19 18 18
6 6 6 7 7 8 9 9 9 9 10 11 12 12 14 14 12 10 10 10 9 9 8 8 8 7 7 7 6 6 6 5 5 5 5 6 5 4 1 1 2 1 1 2 5 7 9 9 9 9 9 8 8 8 6 4 3 4 6 7 9 12 15 17 17 18 20 21 22 24 26 27 29 28 28 28 28 26 26 25 21 17 16 18 18
10 10 10 9 8 8 8 9 9 9 9 10 10 11 13 14 13 13 13 12 11 10 9 8 9 9 9 8 7 6 5 4 3 3 4 5 6 5 2 1 2 2 2 2 2 4 8 9 8 8 8 7 6 6 5 5 6 7 9 10 13 15 17 18 18 20 22 23 23 24 23 23 22 20 18 18 19 19 19 18 14 13 15 18 19
12 13 13 13 12 12 12 12 11 10 10 10 11 12 13 13 13 13 13 13 13 13 11 11 11 11 10 8 7 6 4 3 2 3 4 5 7 7 5 4 5 3 3 3 3 5 8 9 8 7 7 6 6 7 7 9 10 11 12 14 16 17 18 19 21 21 20 19 18 18 17 15 14 14 14 14 14 15 15 14 13 14 17 18 19
14 15 16 16 16 16 16 16 15 15 14 13 13 13 14 14 15 15 15 15 16 16 16 15 14 12 10 8 7 5 4 4 3 4 5 6 8 9 8 8 8 4 3 4 5 7 9 9 7 8 8 7 8 9 11 12 13 12 12 13 14 15 16 17 18 17 16 16 16 15 14 13 12 12 12 12 13 14 14 13 14 16 18 17 18
18 18 17 16 17 18 18 18 17 18 18 18 17 16 16 16 17 17 17 17 16 15 16 15 14 12 11 10 8 7 5 5 5 5 6 7 8 10 10 9 8 6 4 5 7 8 9 8 7 8 9 9 10 11 12 13 12 11 11 12 12 13 13 13 14 14 15 14 13 12 11 11 11 12 12 13 14 14 13 13 13 15 15 16 17
22 22 21 19 19 18 18 19 20 20 20 20 20 20 19 18 18 18 17 17 16 16 15 15 15 13 12 11 9 8 8 9 8 7 8 9 10 11 11 10 9 8 7 8 9 10 9 8 9 10 10 11 12 13 13 13 12 11 12 12 12 13 13 13 13 13 12 10 10 11 11 12 12 12 13 14 14 13 12 12 12 13 13 14 15
25 25 25 24 23 21 18 18 19 20 21 21 22 22 21 20 20 19 19 18 18 17 17 17 16 15 14 13 11 11 10 12 12 10 9 10 10 11 11 10 9 9 10 11 11 10 10 10 11 11 12 12 13 14 14 13 12 12 12 12 12 13 13 14 14 12 10 9 11 12 11 11 11 11 12 12 11 11 11 11 12 12 12 12 13
26 26 26 25 25 24 22 21 20 19 20 21 22 22 22 22 22 21 20 20 20 20 20 20 19 17 16 15 13 12 11 10 11 11 10 11 11 11 11 11 10 10 12 13 12 11 11 11 11 12 12 13 13 14 14 13 12 12 12 12 13 14 14 15 14 11 8 8 10 10 9 10 10 11 10 10 10 10 10 11 11 12 12 12 13
28 28 27 26 26 25 24 24 24 23 20 19 20 21 22 22 23 23 22 21 21 20 20 20 20 19 19 17 15 14 12 10 10 10 11 12 12 12 12 12 11 11 13 14 13 11 10 10 11 12 12 12 12 11 11 11 12 11 10 10 12 13 12 12 11 8 6 7 8 9 9 10 10 10 10 10 10 10 10 10 12 12 12 12 13
29 29 27 26 25 24 23 23 24 23 20 18 20 23 24 24 23 23 23 24 24 22 20 18 17 16 16 15 15 14 11 10 11 11 12 12 12 13 14 12 11 13 14 13 12 11 10 11 11 11 10 10 9 7 8 9 10 10 11 9 8 8 8 7 6 6 7 8 9 9 10 11 11 10 10 10 10 10 10 11 11 12 12 13 13
27 27 25 23 22 21 21 21 20 21 21 20 20 25 29 30 28 25 25 28 28 26 24 21 18 16 14 12 12 13 13 12 13 13 13 13 14 15 15 14 13 14 14 12 11 11 11 10 10 8 7 7 6 5 6 7 6 7 9 8 6 7 8 6 4 6 7 8 9 9 10 11 11 10 10 11 11 11 11 11 12 12 12 13 14
22 22 21 20 20 19 19 19 19 19 20 20 19 20 23 26 28 28 28 29 29 28 27 25 23 21 19 16 16 18 17 16 16 16 14 14 16 16 16 16 15 14 14 13 12 12 10 9 9 8 7 7 6 6 6 6 4 4 5 5 5 8 8 5 5 7 7 7 9 9 9 10 11 11 11 11 12 12 11 12 12 12 12 13 14
19 19 18 17 19 20 20 20 20 19 20 21 21 20 19 18 20 24 27 27 25 24 25 25 24 24 23 21 20 21 20 18 17 16 15 15 17 17 17 17 16 15 14 13 11 10 10 9 9 8 8 7 6 6 5 4 3 2 2 3 4 6 7 6 8 8 7 7 9 9 9 10 11 12 12 13 13 14 13 13 13 13 13 14 14
17 17 16 16 17 18 20 20 20 20 20 20 20 20 20 19 17 19 23 25 25 25 25 26 25 24 24 23 22 22 21 20 17 17 17 17 18 18 18 17 15 15 15 14 12 11 11 10 9 8 8 7 6 5 4 2 1 2 3 3 4 6 6 7 8 7 7 8 9 9 10 11 11 12 12 12 13 13 13 14 14 13 14 14 14
14 14 15 16 16 16 17 17 17 17 18 17 17 16 17 17 17 17 17 18 21 24 26 27 28 27 26 26 24 23 22 21 19 18 19 19 20 20 19 17 16 15 15 15 14 13 12 11 10 8 7 6 6 5 3 2 1 2 4 4 5 6 6 6 7 8 7 8 8 9 10 11 10 11 12 11 12 12 12 13 13 13 13 14 15
14 13 15 16 16 15 15 14 14 14 14 14 15 14 13 14 15 17 16 15 16 17 19 22 26 30 29 26 25 24 23 21 21 20 20 20 21 21 20 19 18 18 18 16 13 12 12 11 9 8 7 7 6 5 3 2 2 3 4 5 6 7 7 6 7 8 8 8 8 9 10 10 10 10 11 12 13 14 14 13 14 14 15 16 17
13 13 15 15 14 13 13 13 12 12 12 12 13 13 13 14 15 17 20 20 19 19 17 16 21 28 30 28 26 24 23 22 22 21 21 21 21 20 21 22 22 22 21 17 13 12 12 10 9 8 8 7 6 5 3 2 2 2 4 5 6 7 8 7 7 9 8 7 8 9 10 10 11 11 12 12 13 14 14 14 16 16 17 18 19
12 13 15 13 8 8 10 12 12 13 14 14 15 14 15 16 17 18 19 19 20 20 18 15 15 19 24 25 25 25 24 23 22 21 20 19 18 19 22 24 24 23 21 18 14 13 12 11 10 9 8 7 6 4 3 2 2 2 5 6 7 8 9 10 11 12 10 8 9 10 10 10 12 12 12 13 13 13 13 14 16 17 16 17 18
12 11 11 9 6 6 8 10 11 12 13 14 15 15 15 16 16 16 16 15 16 16 16 16 16 16 16 19 22 24 23 23 22 21 20 18 18 20 23 22 20 20 19 18 15 13 11 11 10 10 9 7 6 4 3 2 2 2 5 6 6 8 10 10 10 10 10 10 10 10 10 11 12 12 12 12 12 13 13 14 15 15 15 16 17
9 8 7 5 4 5 6 6 7 9 10 10 13 14 14 14 14 14 13 13 14 14 14 15 16 14 13 15 20 22 22 22 22 22 21 21 23 24 22 20 19 19 19 17 15 13 12 12 12 11 9 8 6 5 3 2 2 3 5 5 5 7 9 9 8 9 11 11 11 11 12 13 15 15 14 12 11 12 13 14 13 13 15 16 17
6 5 3 1 1 3 5 5 6 8 9 10 11 12 12 12 12 12 12 12 12 12 12 11 11 13 15 17 18 18 18 19 20 22 24 26 26 24 22 21 20 18 16 14 14 13 12 12 12 10 9 7 6 4 3 2 2 3 5 5 6 7 9 10 10 12 14 15 15 15 16 18 18 18 15 12 11 12 14 14 13 13 15 17 17
4 1 1 1 1 2 5 7 8 10 12 13 12 12 12 13 13 13 12 11 11 11 12 12 12 14 15 15 14 14 15 18 22 25 27 27 25 22 20 19 17 14 13 14 14 13 12 12 11 9 7 6 5 3 2 2 2 3 4 6 7 8 9 10 12 13 15 17 19 19 20 20 20 20 18 15 13 13 13 12 13 14 15 17 17
2 1 1 2 3 4 5 7 8 9 9 8 7 8 9 11 11 12 13 13 13 13 13 13 12 12 12 12 13 15 17 19 23 26 26 25 23 21 18 16 14 13 14 14 12 11 12 12 10 8 7 6 5 3 2 2 2 3 4 6 7 7 8 10 11 13 15 17 19 20 21 20 20 21 20 17 14 13 13 13 14 15 16 17 17
2 2 0 2 3 3 4 6 8 10 11 8 5 2 1 3 5 8 10 11 11 11 11 11 10 10 11 12 14 16 19 23 27 28 26 23 21 18 16 15 14 14 13 10 9 10 12 11 8 7 7 6 4 3 2 2 2 3 4 5 7 8 8 9 11 13 15 17 19 20 21 21 21 22 20 17 13 12 13 14 15 15 16 17 16
2 1 0 1 1 3 6 7 9 12 14 14 13 10 6 3 4 6 8 9 9 10 11 13 16 17 18 19 20 22 25 26 26 24 22 19 18 17 15 14 14 14 11 9 10 11 10 8 7 7 7 5 4 3 2 2 2 3 4 5 7 8 8 9 10 12 14 16 18 20 22 22 22 22 21 18 14 13 14 14 14 15 16 17 15
1 1 2 4 4 6 8 8 9 12 15 16 17 16 13 10 9 11 13 16 18 20 21 21 22 22 23 22 23 24 24 23 21 19 17 15 15 15 14 12 13 12 11 11 13 12 8 6 6 7 6 5 4 3 2 2 2 3 4 6 7 8 9 10 10 11 13 16 18 20 22 22 21 21 21 19 15 13 14 14 14 15 16 16 16
1 3 4 5 5 6 7 8 9 11 13 15 17 18 18 18 18 19 22 24 24 24 24 23 22 22 23 23 23 22 21 20 18 16 14 13 13 12 11 10 11 10 8 10 14 12 8 6 8 8 6 5 4 3 2 1 2 3 4 5 7 9 10 11 11 11 13 15 17 19 21 22 21 21 21 19 15 13 15 15 14 14 15 15 15
5 7 8 10 9 8 8 9 10 10 11 12 15 17 17 18 19 20 21 22 22 22 22 21 21 21 21 21 21 20 19 18 15 13 11 11 10 9 9 9 8 7 7 10 13 12 9 8 8 7 6 6 4 2 1 0 2 3 4 5 7 8 10 12 13 13 13 14 16 18 20 21 21 20 20 20 17 15 15 14 13 13 14 13 13
13 14 13 12 11 9 9 9 9 9 9 10 13 14 15 15 15 16 16 17 17 17 17 17 17 18 18 18 19 19 18 15 12 10 9 8 8 9 9 8 7 8 9 11 12 11 10 9 7 7 7 5 4 3 2 1 2 3 4 5 6 7 9 12 13 14 14 14 15 17 19 20 20 21 21 20 17 14 14 14 14 13 13 12 12
12 13 12 10 9 9 9 9 8 7 8 9 10 11 11 10 10 11 12 12 12 11 11 12 14 16 17 18 18 17 15 11 9 8 6 6 7 9 10 8 8 9 11 12 11 10 9 7 7 7 6 5 4 3 2 2 3 4 5 6 6 7 9 11 13 15 15 14 15 16 18 19 20 21 19 16 14 14 13 13 13 13 12 12 12
9 9 9 9 9 10 10 10 9 8 8 8 8 9 9 9 8 8 8 9 9 9 9 10 13 15 16 16 15 14 12 9 8 6 5 5 7 9 9 9 9 10 11 11 11 9 8 7 6 6 5 4 3 3 3 3 4 5 6 6 7 7 8 10 12 14 15 15 15 15 16 17 19 19 16 13 12 13 13 13 13 13 12 12 12
8 8 8 8 8 9 9 10 9 8 8 8 8 8 8 8 8 8 8 9 9 9 9 10 12 14 13 12 11 11 9 7 6 5 5 6 7 9 9 9 10 10 11 10 9 8 7 6 5 5 4 3 2 2 3 3 4 5 6 7 7 8 8 9 11 13 15 15 15 15 16 17 18 18 16 14 12 13 13 13 12 12 12 12 12
Wind_Direction
211 214 215 210 206 205 207 208 206 199 192 192 190 184 183 183 181 180 180 180 177 171 167 162 158 156 153 147 141 137 127 116 107 99 94 91 93 87 60 81 89 77 75 75 71 75 78 75 74 85 95 96 94 93 94 98 97 94 98 114 134 140 145 151 146 157 181 172 144 159 219 88 76 327 310 310 312 315 312 308 311 316 314 312 309
212 215 218 217 212 209 212 213 209 204 198 197 197 190 187 188 188 187 187 187 184 178 176 175 172 169 171 172 168 161 150 141 130 119 119 116 103 89 69 94 121 122 95 80 52 47 75 87 63 55 79 96 100 105 108 100 93 93 103 113 127 131 133 146 149 154 166 168 163 204 297 40 185 297 309 309 313 318 312 311 313 309 307 308 305
213 214 218 219 214 210 213 213 207 205 201 201 202 196 192 192 192 192 191 190 188 185 184 184 184 186 190 192 187 181 178 173 164 148 140 136 111 88 102 134 163 175 142 128 173 292 36 99 266 332 34 81 112 147 161 130 133 142 126 124 134 135 135 145 153 158 167 182 190 203 273 303 248 286 318 323 334 342 314 314 321 312 309 309 300
210 211 214 216 212 208 211 212 209 205 203 203 204 199 194 194 195 195 194 193 192 192 192 194 198 202 205 208 206 204 209 215 212 208 212 230 261 281 281 273 264 252 247 237 224 239 241 207 233 270 275 262 215 201 196 171 169 170 156 147 147 149 147 148 165 188 191 191 174 183 244 311 340 355 341 334 343 357 342 328 333 328 322 319 306
216 204 202 206 206 207 209 212 213 211 206 204 205 202 196 194 197 198 197 199 201 201 203 205 208 214 219 224 223 217 220 232 239 244 250 251 259 275 280 279 279 271 261 256 250 247 246 231 222 238 255 262 249 235 232 214 198 196 193 182 183 192 187 176 188 214 210 196 188 204 212 163 223 333 357 344 333 341 337 331 332 332 335 336 329
208 191 191 197 199 202 207 210 213 215 213 209 205 204 201 197 199 201 201 206 210 212 213 214 217 222 229 236 238 234 236 245 252 255 258 260 265 273 277 280 284 276 261 256 258 259 260 255 243 242 249 252 249 249 249 229 208 213 224 218 216 221 218 211 211 223 233 218 216 238 228 201 254 310 324 322 323 324 321 330 329 324 329 334 335
175 177 190 198 198 198 204 210 212 215 219 216 207 204 206 204 203 205 207 211 215 218 220 223 227 231 235 242 245 246 249 253 258 261 262 264 269 276 279 279 281 275 263 256 257 259 260 259 253 251 251 251 255 260 259 248 235 230 229 224 227 233 231 227 231 236 238 234 237 248 251 249 258 277 297 315 328 326 318 329 330 317 316 325 330
184 183 186 198 207 204 208 218 221 218 218 219 212 206 208 210 209 209 211 214 219 227 230 232 236 241 244 247 249 251 253 255 258 261 261 263 270 278 282 278 275 274 268 261 260 263 265 264 257 252 246 242 246 251 253 255 252 246 240 234 232 237 241 241 243 245 242 243 251 256 259 265 269 272 291 314 328 312 305 315 322 318 314 322 326
178 176 170 183 200 200 202 216 221 217 213 214 214 209 209 212 210 209 212 215 221 231 236 238 241 246 248 249 251 253 255 256 258 260 260 263 270 274 274 274 272 271 268 266 271 274 275 271 261 253 246 240 242 254 264 268 268 264 258 249 238 233 239 244 247 252 252 254 260 260 260 266 267 269 283 290 289 296 306 313 320 320 317 320 322
142 146 151 167 182 183 184 187 192 201 205 208 211 211 212 213 210 210 213 219 226 235 244 246 246 247 247 248 250 251 253 256 258 259 258 257 258 255 253 261 269 267 251 254 273 287 293 283 269 260 257 254 256 266 274 275 274 270 263 258 252 247 246 247 249 253 252 256 263 256 255 265 265 265 277 285 292 301 309 314 317 318 317 317 318
129 136 144 159 169 166 174 177 172 176 186 194 201 208 214 217 218 217 220 228 235 240 246 248 247 245 243 242 246 246 247 249 247 242 237 228 221 222 236 250 258 269 259 246 272 303 318 309 299 287 277 274 274 276 277 277 277 274 266 262 260 257 253 248 246 248 248 251 254 249 252 265 270 276 286 291 297 305 310 314 316 317 316 313 314
125 135 146 160 166 169 183 194 185 179 182 191 197 201 210 218 221 222 224 231 235 234 234 234 234 231 223 219 222 223 221 216 206 203 207 213 226 238 254 266 268 270 269 263 280 300 304 305 305 300 293 292 293 292 288 284 283 280 274 268 263 259 254 247 239 240 246 254 262 265 268 271 270 273 279 281 291 302 308 314 314 309 308 309 309
112 118 124 134 142 152 167 176 183 191 200 208 210 211 220 227 227 224 222 220 215 207 204 200 193 185 176 173 178 184 187 189 195 208 220 236 257 269 273 276 273 264 257 251 251 268 282 292 294 291 289 291 293 292 289 285 283 282 280 275 269 263 257 252 248 247 252 260 269 272 274 274 272 272 277 283 292 299 303 307 306 304 305 305 303
104 107 111 112 111 116 124 131 146 169 189 201 203 202 210 218 218 213 209 204 193 182 180 178 172 167 164 166 175 186 195 201 212 230 245 258 269 274 277 276 275 277 275 270 264 262 270 278 277 278 282 287 289 289 284 280 279 281 281 280 275 266 257 253 253 255 259 264 267 268 271 275 276 279 284 288 292 295 297 299 300 300 300 300 300
106 110 113 113 113 114 118 126 131 137 152 164 166 172 179 182 183 181 180 177 168 165 171 175 177 177 173 175 186 197 204 213 228 240 251 264 271 276 287 291 289 290 289 285 281 278 277 278 277 276 277 282 289 293 293 288 283 280 277 276 274 269 260 255 255 258 262 267 270 271 273 277 280 283 287 290 292 295 297 299 301 303 303 303 303
113 118 120 120 121 123 127 133 135 136 143 146 148 158 165 165 167 166 164 164 163 163 169 175 180 182 173 166 180 203 210 215 232 248 262 284 304 318 318 313 303 297 295 289 283 279 276 276 278 279 278 278 284 291 294 293 288 282 276 270 267 263 256 252 253 257 260 264 270 274 277 282 285 287 289 291 294 297 301 305 307 307 304 301 299
111 116 121 122 127 135 144 150 150 152 154 154 157 166 173 177 180 177 174 177 179 180 183 181 178 179 175 164 168 204 234 243 261 289 303 308 320 338 339 314 303 301 299 291 285 281 275 271 269 270 272 274 278 284 288 287 283 277 269 264 264 260 254 251 254 259 263 268 274 279 283 286 287 289 292 295 299 301 304 307 305 297 290 290 291
104 107 114 119 126 137 152 159 163 168 169 170 176 187 201 204 203 194 186 185 186 186 186 187 186 191 200 196 191 220 260 283 297 309 315 316 327 352 2 305 307 310 308 300 294 289 279 272 268 265 269 275 279 284 289 285 268 250 248 249 253 258 261 261 263 267 272 276 280 283 285 286 288 292 296 298 301 302 303 303 300 294 290 289 289
133 142 166 187 194 204 214 215 214 214 211 211 215 223 224 217 212 206 196 191 191 190 188 194 203 214 228 236 236 243 266 290 301 310 315 319 333 5 51 273 304 317 310 301 299 296 287 279 278 277 279 284 289 297 302 294 232 224 242 244 242 256 272 276 276 279 282 284 286 288 289 290 293 296 298 299 299 299 299 299 300 298 291 285 286
217 217 218 222 227 233 236 237 238 237 235 236 238 235 228 223 221 218 210 203 200 198 196 200 210 224 240 249 254 257 265 280 293 305 316 322 335 355 349 258 288 310 281 272 288 294 294 290 287 288 292 296 302 312 318 312 270 254 257 253 253 266 280 283 282 284 287 288 290 293 296 297 299 301 302 302 301 300 299 300 299 295 288 286 287
230 231 232 234 239 246 249 248 245 239 236 234 227 219 217 222 225 220 213 209 208 209 211 215 223 236 244 246 249 252 256 264 278 301 320 323 330 342 350 239 278 295 268 241 234 267 289 293 287 288 297 302 304 306 304 299 289 277 271 267 268 275 283 285 285 288 291 293 294 296 298 298 299 299 298 296 296 294 292 292 289 284 282 284 285
243 244 245 245 245 245 246 246 242 234 228 224 221 218 217 222 228 222 215 219 229 237 239 232 227 232 238 237 236 238 243 256 278 307 325 325 326 329 320 294 297 290 260 258 223 232 274 287 279 278 291 293 288 287 288 290 290 284 277 273 273 276 280 283 288 291 294 295 295 295 295 293 290 287 285 284 284 283 282 284 285 283 280 279 280
251 251 250 250 249 247 246 248 246 240 234 229 228 228 229 233 236 233 232 238 245 247 245 235 225 226 231 227 226 231 243 263 285 309 321 322 321 319 312 306 307 295 254 247 234 245 275 284 268 266 276 277 279 285 292 297 298 294 289 285 282 282 285 290 294 296 296 296 295 295 294 290 286 284 284 284 281 280 281 283 282 281 280 279 277
256 256 256 255 253 249 246 247 247 246 245 241 235 234 235 238 239 239 241 242 236 232 231 226 220 219 218 216 223 239 257 272 283 299 312 319 319 316 311 306 302 289 254 230 235 260 284 284 266 268 275 277 284 292 298 303 306 304 303 302 300 299 300 300 300 299 300 301 299 295 290 285 284 285 286 286 285 284 286 286 282 281 282 282 280
257 257 258 259 259 257 254 250 248 247 248 245 239 237 239 238 236 236 237 235 229 225 224 219 216 218 216 215 222 234 256 277 286 292 304 312 314 312 309 304 297 280 256 246 258 275 285 277 269 273 278 283 291 297 301 306 307 304 305 307 307 308 308 305 302 300 300 295 287 286 287 286 287 289 290 290 290 291 292 290 288 287 287 285 284
258 256 255 256 258 260 261 258 254 251 250 248 243 240 239 237 235 235 235 232 230 230 229 227 227 230 231 232 235 234 245 268 279 283 293 302 303 302 301 299 292 272 257 258 266 273 273 270 269 272 277 286 293 295 298 302 302 302 305 308 310 312 311 307 303 300 299 294 289 290 293 293 293 296 297 295 295 296 294 293 292 293 293 293 291
262 259 256 255 255 256 258 259 257 255 253 251 247 243 240 237 235 234 233 232 232 232 234 236 236 235 236 241 242 235 234 249 265 275 286 293 294 292 290 289 283 267 257 257 261 265 268 269 269 273 279 286 290 291 294 298 301 306 309 310 312 314 312 310 310 308 301 300 300 299 299 300 303 304 302 299 297 297 295 295 296 296 296 295 292
264 261 258 256 254 254 254 256 256 256 256 254 250 245 241 237 235 236 234 233 233 234 236 239 241 240 242 244 243 237 235 237 244 262 279 286 285 283 282 280 271 259 253 253 255 260 263 262 267 274 280 285 287 289 292 297 303 309 311 310 313 316 317 321 325 322 308 302 304 304 306 310 310 306 302 300 299 299 298 296 295 295 296 294 291
265 262 260 259 257 255 253 253 254 254 253 251 249 248 244 237 233 235 234 230 228 228 230 234 238 239 242 245 243 240 241 238 237 254 273 276 271 271 273 270 260 254 254 253 252 255 255 255 263 271 274 278 280 276 281 295 305 308 310 312 310 309 314 321 320 311 305 306 308 309 311 313 312 308 303 301 299 299 299 297 295 295 293 291 290
266 263 260 259 258 256 254 251 250 248 247 246 248 252 251 245 237 233 232 231 230 228 225 225 229 232 235 239 239 238 238 241 248 264 274 270 263 263 263 262 260 258 255 248 243 247 249 247 251 253 252 258 260 254 270 292 300 301 310 317 310 306 317 325 311 305 308 309 310 312 313 312 311 309 304 301 300 302 301 298 297 295 292 291 292
264 262 259 258 256 255 254 251 249 247 245 243 242 245 249 247 241 235 234 235 235 231 228 229 234 238 240 241 243 245 247 251 259 267 269 265 263 260 258 259 261 257 251 242 236 237 236 227 228 234 231 230 239 247 266 284 284 289 315 326 317 321 333 335 312 310 312 308 309 312 309 307 308 307 305 303 304 306 305 300 298 295 292 292 292
261 258 256 257 256 254 253 253 251 248 246 244 241 239 240 242 241 237 235 235 233 232 233 236 240 244 246 245 247 251 253 255 258 261 260 259 260 257 254 257 257 252 244 236 224 220 215 206 208 223 227 230 245 257 260 265 276 302 346 343 324 335 343 326 311 316 317 309 310 311 308 308 309 307 306 306 307 310 310 307 302 298 295 295 293
258 256 256 258 259 256 255 254 252 249 246 243 240 239 238 237 237 240 242 243 243 243 244 245 246 249 251 249 248 251 255 256 256 257 256 255 253 252 252 253 250 244 237 225 207 202 204 202 205 217 224 226 238 245 236 225 281 357 18 7 348 352 349 325 315 320 317 309 309 310 308 310 309 306 306 306 306 309 309 307 305 302 299 298 297
255 255 253 254 257 256 253 252 249 245 241 238 235 235 236 236 236 237 242 247 250 250 251 252 250 250 251 252 252 253 255 258 257 255 255 254 251 248 247 245 236 229 225 219 207 202 204 207 208 212 215 217 219 213 196 169 92 40 25 16 4 359 355 338 326 324 320 315 312 309 308 309 309 309 310 308 306 307 307 306 306 304 300 300 301
254 253 250 251 254 252 249 249 247 243 240 238 236 234 234 236 237 236 236 240 244 245 249 253 253 252 252 254 256 257 257 258 257 256 256 254 249 244 240 235 225 216 212 208 203 201 204 206 207 207 206 205 197 179 161 135 85 49 23 15 8 360 358 352 335 327 326 321 315 311 310 312 312 313 313 311 310 309 310 311 311 308 306 307 308
251 249 246 246 248 247 245 244 246 247 247 245 244 244 243 243 245 247 247 248 249 248 247 251 256 257 257 256 257 258 259 258 256 256 254 249 245 240 233 225 216 209 205 200 193 194 199 197 194 194 190 181 172 160 150 121 81 47 20 20 15 0 351 345 337 338 340 331 322 321 319 318 319 318 316 314 312 308 307 313 316 315 314 315 315
240 236 234 231 231 242 248 248 249 253 257 258 258 257 255 255 256 255 253 251 251 251 249 246 251 259 263 262 258 256 256 256 253 250 246 241 235 229 222 214 206 202 202 199 192 194 198 195 186 179 171 162 157 155 151 124 81 34 18 22 14 356 352 353 348 347 349 340 332 331 329 325 325 322 316 313 312 308 306 310 315 317 319 322 321
225 221 217 212 214 237 253 258 262 267 269 269 268 265 261 259 257 254 251 248 245 245 244 242 243 249 258 262 258 254 252 250 244 237 229 219 211 209 209 205 201 200 201 201 199 196 194 188 176 165 158 157 154 152 147 114 71 27 17 17 360 346 356 3 354 345 347 345 339 337 335 332 331 328 322 316 312 310 309 309 312 317 324 327 324
209 198 192 196 217 244 257 267 276 279 277 272 268 264 260 257 252 248 249 248 244 241 242 242 242 237 235 244 253 252 245 239 233 224 211 196 190 193 194 193 193 192 192 194 198 193 183 176 168 160 158 158 150 145 140 109 66 20 9 8 352 343 352 357 349 344 349 350 347 344 343 343 343 342 337 324 312 313 317 318 321 327 329 329 328
167 167 186 203 278 278 285 290 291 289 285 279 272 264 256 252 249 246 245 242 238 238 239 236 233 230 230 240 249 246 231 221 214 204 191 184 182 184 185 186 189 187 184 187 188 180 171 167 163 159 159 156 144 138 136 107 60 12 354 351 345 342 347 349 349 350 350 351 353 354 353 351 351 351 346 332 322 328 332 331 333 336 334 332 333
118 140 276 331 342 292 303 313 315 309 300 290 279 267 257 253 250 243 239 234 229 228 227 223 223 230 235 236 233 218 203 197 193 186 178 173 171 172 175 180 182 182 182 181 177 169 164 161 156 153 154 151 142 137 127 86 47 9 348 340 338 341 343 344 347 349 349 350 354 356 355 354 355 357 355 345 336 335 334 333 338 341 339 338 337
102 206 281 342 342 326 327 337 343 339 329 310 283 259 251 249 244 235 232 232 228 225 223 223 226 229 226 218 209 200 190 182 175 168 162 160 160 162 164 167 170 175 177 174 166 162 162 158 153 156 164 164 155 149 130 73 33 3 345 337 336 337 339 341 344 347 348 349 351 354 354 355 359 2 359 349 337 331 332 339 347 347 342 340 339
171 193 195 358 352 358 15 22 24 24 24 27 36 54 189 214 214 214 216 219 220 218 216 212 204 192 181 178 177 171 163 157 154 153 154 156 156 156 156 159 167 172 171 162 156 161 162 158 156 166 176 175 166 154 135 74 28 1 346 343 340 336 337 339 341 343 346 347 349 352 354 357 1 3 358 348 337 332 333 340 348 349 344 341 339
220 253 160 107 70 64 59 52 47 45 46 49 55 60 72 110 154 170 175 173 168 161 154 148 142 138 140 143 144 143 143 146 149 151 152 151 151 152 154 158 165 169 167 160 161 161 158 156 163 173 180 182 174 153 120 65 25 2 358 359 354 345 342 341 340 342 345 347 349 352 355 358 1 1 357 352 348 342 335 334 342 349 348 344 341
269 245 178 153 115 84 75 70 64 60 59 60 64 69 76 90 108 123 127 125 124 123 123 124 126 128 131 136 140 140 142 145 147 146 144 144 148 153 153 155 162 167 170 174 174 167 153 149 170 181 186 185 172 144 105 62 18 3 7 9 3 355 350 347 344 345 346 347 349 352 354 357 360 0 358 358 358 348 338 335 339 344 346 345 344
223 206 175 145 111 86 82 82 79 75 74 74 76 79 83 89 98 107 113 115 115 117 119 121 126 131 134 138 141 142 144 145 144 141 138 140 145 147 147 152 158 159 162 174 180 177 167 167 180 187 186 176 162 138 109 55 348 351 2 4 2 359 357 354 352 349 348 349 350 351 352 357 359 359 0 4 2 348 339 337 336 336 341 344 342
119 131 131 121 107 97 98 100 95 89 87 89 90 91 94 98 103 110 114 116 116 118 119 123 127 131 135 139 143 145 146 146 143 139 137 138 143 145 147 149 150 148 154 168 175 176 177 182 186 184 175 166 159 150 138 22 331 337 349 354 355 358 359 358 356 354 351 350 349 349 352 356 358 359 4 9 4 349 340 339 335 334 339 343 339
106 110 111 108 103 98 99 101 96 91 93 99 103 105 105 108 112 118 121 123 122 121 122 124 127 132 139 146 150 151 150 144 137 134 135 141 152 158 156 151 151 157 164 168 170 174 181 184 179 172 168 166 169 178 189 245 303 321 337 345 348 355 359 360 358 357 354 350 347 349 352 354 356 2 8 8 357 342 337 338 337 335 338 340 337
106 108 107 105 102 100 101 99 95 93 98 104 107 107 106 107 112 119 125 128 127 124 124 127 134 141 149 154 156 155 150 139 133 135 139 146 158 164 162 158 158 162 165 169 173 177 178 173 166 168 173 178 185 203 228 269 301 320 333 338 342 350 356 357 358 358 355 349 346 348 350 351 357 5 6 357 343 337 338 338 338 338 339 338 337
105 108 109 107 104 104 107 106 101 98 99 100 100 102 103 103 106 111 117 120 120 118 120 128 137 143 147 149 152 153 149 143 142 149 154 158 161 163 160 157 159 165 171 174 175 172 166 161 163 170 178 187 205 236 267 293 311 322 328 333 338 342 347 350 355 357 355 350 347 346 346 350 359 4 360 346 338 341 341 338 339 342 341 339 339
113 115 115 110 106 107 112 113 112 111 112 110 106 104 103 104 108 111 113 115 117 118 120 127 134 137 139 144 151 155 153 151 155 166 173 172 167 163 159 155 158 166 171 171 166 160 154 155 161 169 178 195 228 266 291 305 316 323 326 330 333 335 337 342 349 352 353 351 347 343 344 351 358 359 354 348 345 344 342 341 342 343 342 342 342
Height
1524 1526 1528 1530 1532 1534 1536 1537 1538 1540 1540 1542 1543 1544 1545 1546 1547 1548 1549 1550 1551 1552 1553 1554 1555 1555 1555 1556 1556 1556 1557 1557 1558 1558 1559 1559 1560 1560 1560 1561 1561 1561 1561 1560 1560 1560 1561 1561 1562 1561 1562 1562 1563 1563 1563 1563 1563 1564 1565 1565 1565 1565 1566 1567 1567 1567 1567 1567 1568 1568 1567 1567 1568 1567 1567 1566 1565 1565 1565 1564 1563 1563 1563 1562 1561
1523 1525 1527 1529 1531 1533 1535 1536 1538 1539 1540 1541 1542 1543 1544 1545 1546 1547 1548 1549 1550 1551 1552 1553 1554 1555 1555 1555 1556 1556 1556 1557 1557 1557 1558 1559 1559 1560 1560 1560 1561 1561 1561 1561 1561 1561 1561 1562 1562 1562 1562 1563 1563 1564 1564 1564 1565 1565 1565 1566 1566 1566 1566 1567 1567 1567 1567 1567 1567 1567 1566 1567 1567 1566 1565 1565 1565 1564 1564 1563 1563 1562 1562 1562 1560
1522 1524 1525 1527 1529 1532 1533 1535 1537 1538 1539 1540 1541 1542 1543 1544 1545 1546 1547 1548 1549 1550 1551 1552 1553 1554 1554 1554 1555 1555 1556 1556 1556 1557 1557 1558 1559 1559 1559 1560 1560 1560 1561 1561 1562 1562 1561 1562 1563 1562 1563 1563 1563 1564 1564 1565 1566 1566 1566 1566 1566 1566 1566 1567 1567 1567 1567 1566 1567 1567 1566 1566 1566 1566 1565 1564 1564 1564 1564 1563 1562 1561 1561 1561 1560
1521 1523 1524 1526 1528 1530 1532 1534 1535 1537 1538 1539 1540 1542 1543 1543 1544 1545 1546 1547 1548 1549 1550 1551 1552 1553 1553 1553 1553 1554 1555 1555 1555 1556 1556 1557 1558 1559 1559 1559 1560 1560 1560 1561 1561 1562 1562 1562 1563 1563 1563 1563 1563 1564 1564 1565 1565 1566 1566 1566 1566 1566 1566 1566 1567 1567 1567 1566 1566 1567 1566 1565 1565 1565 1565 1564 1563 1563 1563 1562 1561 1561 1560 1560 1559
1520 1522 1524 1525 1526 1528 1530 1532 1534 1535 1536 1538 1539 1540 1541 1542 1543 1544 1545 1546 1547 1548 1549 1550 1551 1552 1552 1552 1552 1553 1553 1553 1554 1554 1555 1556 1556 1557 1558 1558 1559 1560 1560 1560 1560 1561 1561 1561 1562 1563 1563 1563 1563 1564 1564 1564 1565 1565 1565 1566 1566 1565 1565 1566 1566 1566 1567 1566 1566 1565 1565 1565 1564 1564 1564 1564 1564 1563 1563 1561 1560 1559 1558 1558 1557
1520 1522 1523 1524 1526 1527 1529 1531 1532 1534 1535 1536 1538 1539 1540 1541 1542 1543 1544 1545 1546 1547 1548 1548 1549 1550 1551 1551 1551 1552 1552 1552 1552 1553 1553 1554 1554 1555 1556 1557 1558 1558 1559 1559 1560 1560 1560 1561 1561 1561 1562 1562 1562 1563 1563 1563 1563 1564 1564 1565 1565 1565 1565 1565 1566 1566 1566 1566 1565 1565 1564 1564 1563 1563 1562 1562 1563 1562 1562 1561 1560 1558 1557 1556 1555
1520 1521 1523 1523 1525 1526 1527 1529 1531 1533 1534 1535 1536 1537 1538 1540 1541 1542 1543 1544 1545 1546 1546 1547 1548 1549 1550 1550 1550 1550 1550 1550 1551 1551 1552 1552 1553 1553 1554 1555 1556 1556 1557 1558 1558 1558 1559 1559 1560 1560 1561 1561 1561 1561 1561 1561 1562 1562 1563 1564 1564 1564 1564 1564 1564 1564 1565 1565 1565 1564 1564 1564 1563 1562 1561 1560 1560 1560 1560 1560 1559 1559 1557 1555 1553
1519 1521 1522 1523 1524 1525 1526 1527 1529 1531 1532 1533 1534 1536 1537 1538 1540 1541 1542 1543 1544 1545 1545 1546 1546 1547 1548 1548 1548 1548 1548 1549 1549 1549 1550 1551 1551 1551 1552 1553 1553 1554 1555 1556 1556 1556 1557 1557 1558 1559 1559 1559 1559 1559 1560 1560 1560 1560 1561 1561 1561 1562 1563 1563 1563 1563 1563 1563 1563 1563 1563 1563 1562 1562 1560 1559 1560 1560 1559 1557 1557 1557 1555 1554 1552
1518 1519 1520 1522 1524 1524 1525 1526 1528 1529 1529 1531 1533 1535 1536 1537 1538 1540 1541 1542 1543 1544 1544 1544 1544 1545 1546 1546 1547 1547 1547 1547 1547 1548 1549 1549 1549 1550 1550 1551 1552 1552 1554 1554 1554 1554 1555 1555 1556 1556 1556 1556 1557 1557 1557 1558 1558 1558 1558 1558 1558 1559 1560 1561 1561 1562 1562 1561 1561 1561 1562 1562 1561 1560 1560 1559 1558 1558 1556 1555 1554 1554 1553 1551 1551
1518 1519 1521 1522 1523 1524 1525 1526 1527 1528 1529 1531 1533 1534 1535 1536 1536 1537 1538 1539 1540 1542 1544 1544 1543 1543 1544 1544 1544 1545 1545 1545 1545 1546 1547 1547 1548 1548 1549 1550 1550 1551 1552 1553 1553 1553 1553 1553 1553 1554 1554 1554 1555 1556 1556 1556 1555 1556 1556 1556 1556 1557 1558 1558 1559 1560 1560 1560 1559 1560 1560 1560 1559 1558 1558 1557 1555 1554 1554 1553 1552 1552 1551 1549 1549
1519 1520 1521 1522 1524 1525 1526 1526 1527 1528 1529 1531 1533 1533 1534 1535 1535 1535 1537 1538 1539 1541 1543 1542 1541 1541 1542 1542 1543 1543 1543 1544 1544 1545 1545 1546 1547 1547 1548 1549 1549 1550 1551 1551 1552 1552 1552 1552 1552 1552 1552 1553 1553 1554 1554 1553 1553 1553 1554 1554 1554 1555 1555 1556 1557 1557 1557 1557 1558 1557 1557 1557 1557 1556 1556 1555 1553 1552 1551 1551 1550 1549 1549 1547 1546
1520 1521 1522 1523 1524 1525 1526 1526 1527 1528 1529 1530 1531 1532 1533 1534 1534 1535 1536 1537 1538 1539 1540 1540 1540 1540 1540 1541 1541 1542 1542 1543 1544 1544 1545 1545 1546 1547 1547 1548 1548 1549 1550 1550 1551 1551 1551 1551 1551 1551 1551 1551 1552 1552 1552 1551 1551 1551 1551 1551 1552 1552 1553 1554 1554 1555 1554 1554 1555 1555 1555 1555 1554 1554 1554 1553 1552 1551 1549 1549 1548 1547 1546 1544 1543
1521 1521 1522 1523 1524 1525 1526 1526 1527 1528 1528 1529 1530 1531 1533 1534 1534 1534 1535 1536 1537 1539 1539 1539 1539 1540 1540 1541 1541 1542 1542 1543 1544 1544 1545 1545 1546 1546 1547 1547 1547 1548 1549 1549 1550 1550 1550 1551 1550 1550 1550 1550 1550 1550 1550 1550 1549 1549 1549 1549 1549 1550 1550 1550 1551 1551 1551 1552 1553 1553 1552 1552 1552 1552 1551 1550 1550 1549 1548 1547 1546 1545 1543 1541 1540
1522 1522 1523 1523 1524 1525 1527 1527 1528 1528 1529 1529 1530 1531 1533 1533 1534 1534 1535 1536 1536 1538 1539 1539 1540 1540 1540 1541 1541 1542 1542 1543 1543 1544 1544 1544 1545 1545 1546 1546 1546 1547 1547 1548 1548 1548 1549 1549 1549 1549 1549 1548 1548 1549 1549 1548 1547 1547 1547 1547 1547 1547 1547 1547 1548 1548 1549 1550 1550 1550 1550 1550 1549 1548 1548 1548 1547 1547 1546 1545 1544 1542 1540 1538 1536
1523 1523 1524 1524 1525 1526 1527 1528 1529 1529 1530 1530 1531 1532 1533 1533 1533 1534 1534 1535 1536 1537 1539 1539 1539 1540 1540 1541 1541 1541 1542 1542 1542 1543 1543 1544 1544 1544 1545 1545 1545 1545 1545 1546 1546 1546 1547 1547 1547 1547 1547 1546 1546 1546 1547 1547 1546 1546 1546 1545 1545 1544 1544 1545 1545 1546 1547 1547 1548 1547 1547 1547 1547 1546 1546 1545 1544 1543 1542 1541 1539 1537 1535 1533 1532
1524 1524 1525 1525 1526 1527 1528 1528 1529 1530 1530 1531 1532 1532 1533 1533 1533 1534 1535 1535 1536 1537 1538 1539 1539 1539 1540 1541 1541 1541 1541 1542 1542 1542 1542 1543 1543 1544 1544 1544 1544 1544 1544 1544 1544 1544 1545 1545 1545 1545 1544 1544 1544 1545 1545 1545 1544 1544 1544 1543 1543 1543 1543 1543 1544 1544 1545 1545 1545 1545 1545 1544 1544 1543 1542 1542 1541 1540 1538 1537 1535 1534 1532 1530 1529
1524 1525 1525 1526 1526 1527 1527 1528 1529 1529 1530 1531 1532 1532 1533 1533 1534 1534 1535 1536 1536 1537 1537 1538 1539 1539 1540 1541 1541 1540 1541 1541 1541 1541 1542 1542 1543 1543 1544 1543 1543 1543 1543 1543 1543 1543 1543 1543 1543 1543 1543 1543 1543 1543 1543 1543 1543 1543 1542 1542 1541 1541 1541 1542 1542 1543 1543 1543 1543 1542 1542 1541 1541 1540 1539 1538 1537 1536 1535 1533 1533 1532 1530 1528 1527
1524 1525 1525 1526 1526 1527 1527 1528 1528 1529 1530 1530 1530 1531 1532 1532 1533 1533 1534 1535 1535 1536 1537 1537 1538 1539 1539 1540 1540 1540 1540 1540 1540 1540 1541 1541 1542 1542 1543 1543 1542 1541 1541 1541 1541 1541 1541 1541 1541 1541 1541 1541 1541 1541 1541 1542 1542 1543 1542 1542 1542 1541 1540 1541 1541 1541 1541 1541 1540 1539 1539 1538 1537 1536 1535 1534 1533 1532 1531 1530 1529 1529 1527 1525 1524
1523 1524 1525 1525 1525 1526 1527 1527 1528 1528 1529 1529 1529 1530 1530 1531 1531 1532 1533 1534 1535 1535 1536 1536 1537 1537 1538 1538 1539 1539 1539 1538 1539 1539 1539 1539 1540 1541 1542 1542 1541 1541 1541 1540 1540 1539 1539 1539 1539 1539 1539 1539 1539 1539 1539 1540 1541 1541 1541 1542 1542 1541 1539 1539 1539 1539 1538 1537 1537 1536 1535 1534 1533 1532 1530 1529 1529 1528 1527 1527 1526 1525 1524 1522 1521
1521 1522 1523 1523 1524 1524 1525 1526 1526 1527 1527 1527 1527 1528 1528 1528 1529 1530 1531 1533 1534 1534 1535 1536 1536 1536 1537 1537 1537 1537 1537 1537 1537 1537 1537 1538 1538 1539 1541 1541 1540 1540 1540 1539 1538 1537 1537 1537 1537 1537 1537 1537 1537 1537 1537 1538 1539 1539 1539 1540 1540 1539 1537 1537 1537 1536 1535 1535 1534 1533 1532 1531 1530 1529 1527 1525 1524 1524 1523 1523 1522 1521 1520 1519 1518
1520 1521 1521 1522 1523 1523 1524 1524 1524 1525 1526 1526 1526 1526 1526 1527 1528 1528 1530 1531 1532 1533 1533 1534 1535 1535 1535 1535 1535 1536 1536 1536 1536 1536 1536 1536 1536 1537 1539 1539 1539 1539 1539 1539 1538 1536 1535 1536 1536 1536 1536 1536 1536 1536 1536 1536 1537 1537 1537 1537 1537 1536 1535 1535 1534 1534 1533 1532 1531 1531 1530 1529 1528 1527 1526 1525 1523 1522 1521 1520 1519 1519 1518 1517 1515
1519 1520 1520 1521 1521 1521 1522 1523 1523 1523 1524 1525 1525 1525 1526 1526 1527 1528 1529 1529 1530 1530 1531 1532 1533 1533 1533 1533 1533 1534 1534 1534 1534 1534 1534 1534 1535 1535 1536 1537 1537 1538 1538 1538 1538 1536 1534 1534 1534 1534 1534 1534 1535 1535 1535 1535 1535 1535 1535 1534 1534 1534 1533 1532 1532 1531 1531 1530 1529 1529 1528 1527 1526 1526 1525 1523 1522 1520 1519 1518 1517 1517 1515 1514 1512
1517 1518 1518 1519 1519 1519 1520 1520 1521 1521 1522 1523 1524 1524 1524 1525 1525 1526 1527 1527 1528 1528 1528 1529 1530 1530 1530 1530 1531 1531 1532 1532 1532 1532 1532 1533 1533 1533 1533 1534 1534 1535 1536 1536 1536 1535 1533 1533 1533 1533 1533 1533 1533 1533 1533 1533 1532 1532 1532 1532 1531 1531 1531 1530 1529 1529 1528 1528 1527 1526 1526 1525 1525 1524 1522 1521 1520 1518 1516 1515 1514 1513 1511 1509 1508
1515 1516 1516 1516 1517 1517 1517 1518 1518 1519 1519 1520 1521 1522 1522 1523 1523 1524 1524 1525 1525 1526 1526 1526 1527 1527 1527 1528 1528 1529 1530 1530 1530 1530 1530 1531 1531 1531 1531 1531 1531 1532 1533 1534 1533 1532 1531 1531 1532 1532 1532 1532 1531 1531 1531 1531 1530 1530 1529 1529 1529 1528 1528 1528 1527 1527 1526 1525 1525 1524 1524 1523 1521 1520 1520 1518 1517 1514 1512 1510 1509 1508 1506 1504 1502
1513 1513 1513 1514 1514 1514 1515 1515 1515 1516 1516 1517 1518 1519 1519 1520 1520 1521 1521 1522 1523 1523 1523 1524 1524 1525 1525 1526 1526 1526 1527 1527 1528 1528 1528 1528 1529 1529 1529 1529 1529 1530 1530 1531 1531 1530 1530 1530 1530 1530 1530 1530 1530 1529 1529 1529 1528 1528 1527 1527 1527 1526 1526 1526 1525 1524 1524 1524 1523 1522 1521 1520 1518 1517 1516 1514 1512 1509 1507 1506 1505 1503 1501 1499 1497
1510 1510 1511 1511 1511 1511 1512 1512 1512 1513 1513 1514 1514 1515 1516 1517 1517 1518 1519 1519 1520 1520 1521 1521 1522 1522 1523 1523 1524 1525 1524 1524 1525 1525 1526 1526 1527 1527 1527 1527 1527 1528 1528 1528 1528 1529 1529 1529 1529 1529 1529 1528 1528 1528 1527 1527 1526 1526 1525 1525 1525 1524 1524 1523 1523 1522 1522 1521 1520 1519 1518 1517 1515 1513 1511 1509 1507 1506 1505 1503 1501 1499 1497 1495 1494
1506 1507 1507 1508 1508 1508 1509 1509 1509 1509 1510 1510 1511 1512 1512 1513 1514 1514 1515 1516 1516 1517 1517 1518 1519 1519 1520 1520 1522 1522 1522 1521 1521 1522 1523 1524 1524 1525 1525 1525 1525 1526 1526 1526 1527 1527 1527 1527 1527 1527 1527 1527 1527 1526 1525 1525 1525 1524 1524 1524 1523 1522 1522 1521 1520 1520 1520 1519 1517 1516 1514 1512 1511 1509 1507 1506 1505 1504 1502 1500 1498 1496 1495 1493 1492
1501 1502 1503 1504 1504 1505 1505 1505 1505 1506 1507 1507 1507 1508 1509 1509 1510 1510 1511 1512 1512 1513 1514 1514 1515 1516 1517 1518 1519 1519 1519 1519 1519 1520 1521 1521 1522 1522 1522 1523 1523 1523 1524 1524 1525 1525 1526 1526 1526 1526 1526 1526 1525 1525 1524 1524 1523 1523 1523 1522 1521 1520 1520 1519 1518 1518 1518 1516 1514 1513 1511 1509 1508 1506 1505 1504 1502 1501 1500 1498 1496 1495 1493 1491 1489
1496 1497 1498 1499 1500 1501 1501 1501 1502 1502 1503 1503 1503 1503 1504 1505 1506 1507 1507 1507 1508 1509 1510 1511 1512 1513 1513 1515 1516 1517 1517 1517 1516 1517 1518 1519 1520 1520 1520 1521 1521 1521 1522 1523 1523 1524 1524 1525 1525 1525 1525 1525 1524 1524 1524 1523 1522 1522 1521 1521 1520 1519 1519 1518 1518 1517 1516 1513 1511 1510 1508 1507 1505 1504 1503 1502 1500 1499 1497 1496 1494 1493 1491 1489 1487
1492 1493 1494 1495 1496 1497 1497 1498 1498 1498 1499 1499 1499 1499 1499 1500 1501 1502 1502 1502 1504 1506 1506 1507 1508 1509 1510 1512 1513 1513 1514 1514 1513 1514 1515 1516 1517 1517 1518 1519 1519 1519 1520 1521 1522 1522 1523 1523 1524 1524 1524 1524 1524 1523 1523 1522 1521 1521 1520 1519 1519 1518 1517 1517 1516 1515 1513 1511 1509 1508 1506 1505 1503 1502 1501 1499 1498 1496 1495 1494 1492 1491 1489 1488 1486
1489 1489 1490 1491 1492 1492 1493 1493 1494 1494 1495 1496 1496 1496 1495 1495 1496 1497 1498 1499 1500 1502 1503 1504 1505 1506 1507 1508 1509 1509 1510 1511 1511 1512 1513 1514 1515 1515 1516 1517 1517 1518 1519 1519 1520 1521 1521 1522 1522 1522 1522 1522 1522 1522 1521 1520 1520 1520 1519 1518 1518 1516 1515 1515 1514 1512 1510 1509 1508 1507 1505 1503 1502 1500 1499 1497 1495 1494 1493 1492 1490 1489 1487 1486 1484
1485 1486 1487 1487 1488 1488 1488 1489 1489 1490 1491 1491 1492 1492 1493 1493 1493 1493 1494 1495 1496 1498 1499 1500 1501 1502 1504 1505 1505 1506 1507 1508 1509 1509 1510 1511 1512 1513 1514 1515 1515 1516 1517 1518 1519 1520 1520 1521 1521 1521 1521 1521 1520 1520 1520 1519 1519 1518 1518 1518 1517 1515 1515 1514 1512 1510 1509 1508 1507 1505 1504 1502 1500 1498 1497 1495 1493 1492 1490 1489 1488 1487 1485 1484 1482
1482 1483 1483 1484 1484 1484 1484 1485 1485 1486 1487 1488 1488 1488 1489 1490 1490 1490 1490 1491 1492 1494 1495 1496 1497 1499 1500 1501 1502 1503 1503 1505 1506 1507 1507 1508 1509 1510 1511 1512 1513 1514 1515 1516 1517 1518 1519 1519 1519 1519 1519 1519 1519 1518 1518 1518 1518 1517 1517 1517 1516 1515 1514 1514 1511 1509 1508 1507 1505 1504 1502 1501 1499 1497 1495 1493 1492 1490 1489 1487 1486 1485 1483 1482 1480
1479 1479 1480 1480 1480 1481 1481 1482 1482 1483 1483 1484 1484 1485 1485 1486 1487 1488 1488 1488 1489 1490 1491 1493 1494 1495 1496 1497 1499 1499 1500 1501 1502 1503 1504 1505 1506 1507 1509 1510 1511 1512 1513 1515 1516 1516 1517 1517 1517 1517 1518 1517 1517 1517 1517 1517 1517 1516 1516 1515 1514 1514 1513 1513 1511 1509 1507 1506 1504 1503 1501 1499 1497 1496 1494 1492 1490 1489 1487 1486 1484 1483 1482 1480 1479
1476 1476 1477 1477 1477 1478 1478 1479 1479 1480 1480 1481 1481 1481 1482 1483 1483 1484 1485 1486 1486 1487 1489 1490 1490 1491 1493 1494 1495 1496 1497 1498 1499 1500 1500 1501 1503 1504 1506 1507 1508 1509 1511 1513 1514 1514 1515 1515 1515 1516 1516 1516 1516 1516 1516 1516 1516 1515 1515 1514 1513 1512 1512 1511 1511 1509 1506 1504 1503 1502 1500 1498 1496 1494 1492 1491 1489 1487 1485 1484 1483 1481 1480 1478 1477
1473 1474 1474 1475 1475 1476 1476 1477 1477 1477 1478 1478 1478 1479 1479 1479 1480 1480 1481 1482 1483 1484 1486 1487 1486 1486 1488 1490 1491 1492 1493 1494 1495 1496 1497 1498 1499 1501 1503 1504 1505 1506 1508 1510 1512 1513 1513 1514 1514 1514 1514 1514 1515 1515 1515 1515 1515 1514 1514 1513 1512 1512 1510 1510 1509 1507 1505 1503 1502 1501 1498 1497 1495 1493 1491 1489 1487 1485 1484 1482 1481 1479 1478 1476 1475
1472 1472 1472 1473 1473 1474 1475 1475 1475 1475 1475 1475 1476 1476 1476 1476 1477 1477 1478 1479 1480 1481 1483 1484 1484 1483 1483 1484 1486 1487 1489 1489 1490 1492 1493 1494 1497 1499 1500 1501 1503 1505 1506 1508 1510 1511 1511 1512 1513 1513 1513 1514 1514 1514 1514 1514 1514 1513 1512 1512 1511 1511 1509 1508 1507 1505 1503 1503 1502 1500 1497 1496 1494 1492 1490 1488 1486 1484 1482 1481 1479 1477 1476 1474 1473
1470 1470 1471 1471 1472 1473 1474 1474 1474 1473 1473 1473 1473 1473 1473 1473 1474 1474 1474 1475 1476 1477 1478 1480 1481 1481 1481 1481 1481 1482 1484 1485 1486 1488 1489 1491 1494 1496 1498 1500 1502 1504 1505 1506 1508 1509 1510 1510 1511 1512 1512 1513 1513 1513 1513 1513 1512 1512 1511 1511 1511 1510 1508 1507 1506 1505 1504 1503 1501 1499 1497 1495 1493 1491 1489 1486 1484 1483 1481 1479 1477 1475 1474 1472 1471
1469 1469 1470 1471 1471 1472 1472 1472 1472 1471 1471 1471 1471 1470 1470 1470 1470 1470 1470 1471 1472 1472 1473 1475 1477 1478 1478 1477 1476 1478 1480 1480 1481 1483 1485 1488 1491 1494 1496 1499 1501 1501 1502 1504 1506 1508 1509 1509 1510 1511 1511 1511 1512 1512 1512 1512 1511 1511 1511 1510 1510 1509 1508 1507 1506 1505 1503 1502 1500 1498 1496 1494 1491 1489 1487 1485 1483 1481 1479 1477 1476 1474 1472 1471 1469
1469 1469 1470 1470 1471 1471 1471 1470 1469 1469 1468 1467 1466 1466 1466 1465 1465 1466 1467 1467 1468 1469 1469 1471 1472 1473 1473 1473 1473 1474 1476 1477 1479 1481 1483 1486 1489 1492 1494 1497 1499 1500 1501 1503 1505 1507 1508 1508 1509 1509 1510 1510 1511 1511 1511 1510 1510 1510 1510 1509 1509 1508 1507 1506 1505 1503 1502 1500 1498 1496 1494 1492 1490 1488 1485 1484 1482 1480 1477 1476 1474 1473 1471 1469 1467
1469 1470 1470 1470 1470 1470 1470 1469 1468 1467 1465 1463 1462 1461 1461 1461 1461 1462 1463 1464 1465 1465 1466 1467 1468 1468 1469 1470 1471 1472 1474 1475 1476 1479 1483 1486 1489 1491 1494 1496 1498 1499 1501 1503 1505 1506 1507 1508 1508 1509 1509 1509 1510 1510 1510 1510 1510 1510 1509 1508 1508 1507 1506 1505 1503 1502 1501 1499 1497 1495 1493 1491 1489 1486 1484 1482 1480 1478 1476 1475 1473 1472 1470 1468 1466
1470 1471 1471 1470 1470 1470 1469 1468 1467 1465 1463 1460 1459 1458 1458 1458 1458 1459 1460 1461 1462 1463 1463 1464 1465 1466 1467 1468 1469 1471 1472 1474 1476 1480 1484 1486 1489 1491 1494 1496 1498 1499 1501 1503 1504 1506 1507 1507 1508 1508 1508 1508 1509 1509 1509 1509 1509 1508 1508 1507 1507 1506 1505 1504 1503 1501 1500 1498 1497 1494 1492 1490 1488 1485 1483 1481 1479 1477 1476 1474 1472 1470 1469 1467 1465
1471 1471 1471 1470 1470 1469 1469 1468 1467 1465 1463 1460 1458 1457 1456 1456 1457 1458 1458 1459 1460 1461 1462 1463 1463 1464 1465 1467 1469 1471 1473 1475 1478 1482 1485 1487 1489 1492 1494 1496 1498 1499 1501 1503 1505 1506 1506 1506 1507 1507 1507 1507 1508 1508 1508 1508 1508 1507 1507 1506 1506 1505 1504 1503 1502 1500 1499 1497 1495 1493 1491 1489 1487 1484 1482 1481 1479 1477 1475 1473 1471 1470 1468 1466 1464
1471 1471 1470 1470 1470 1470 1469 1468 1468 1466 1464 1461 1459 1458 1457 1457 1457 1458 1458 1459 1459 1460 1461 1462 1464 1465 1466 1469 1471 1473 1475 1478 1481 1484 1486 1488 1490 1492 1494 1496 1498 1499 1501 1502 1504 1504 1505 1506 1506 1506 1506 1507 1507 1507 1507 1507 1507 1507 1506 1505 1505 1504 1503 1502 1500 1499 1498 1496 1494 1492 1490 1488 1486 1484 1482 1480 1478 1476 1474 1473 1471 1469 1467 1465 1463
1471 1470 1470 1470 1470 1470 1470 1469 1469 1467 1466 1464 1462 1461 1460 1459 1459 1459 1460 1460 1461 1462 1463 1465 1467 1468 1470 1472 1474 1476 1479 1481 1484 1486 1488 1489 1491 1493 1495 1496 1498 1499 1500 1501 1502 1503 1504 1505 1505 1505 1506 1506 1506 1506 1506 1506 1506 1506 1505 1504 1504 1503 1502 1501 1499 1498 1496 1495 1493 1491 1489 1487 1485 1483 1481 1479 1477 1475 1474 1472 1470 1468 1466 1464 1463
1470 1470 1470 1471 1471 1471 1470 1470 1470 1469 1468 1467 1466 1465 1464 1464 1463 1463 1464 1464 1465 1466 1467 1469 1471 1472 1474 1476 1478 1480 1482 1484 1486 1488 1489 1491 1492 1494 1495 1496 1498 1499 1500 1500 1500 1501 1502 1503 1504 1504 1505 1505 1505 1505 1505 1505 1505 1505 1504 1503 1503 1502 1501 1500 1498 1497 1495 1494 1492 1491 1489 1487 1484 1482 1480 1478 1476 1475 1474 1472 1470 1468 1466 1464 1462
1471 1471 1471 1472 1472 1471 1471 1471 1471 1470 1470 1469 1469 1468 1468 1468 1468 1469 1469 1469 1470 1471 1472 1473 1474 1476 1477 1479 1480 1482 1484 1486 1488 1489 1490 1491 1493 1494 1495 1496 1497 1498 1499 1499 1499 1501 1501 1502 1503 1504 1504 1504 1505 1505 1505 1505 1504 1504 1503 1503 1502 1501 1500 1499 1497 1496 1494 1493 1492 1490 1488 1486 1484 1482 1480 1477 1475 1474 1473 1472 1470 1468 1466 1464 1462
1473 1473 1473 1473 1473 1473 1473 1473 1473 1472 1472 1472 1471 1471 1471 1471 1472 1472 1473 1473 1474 1475 1476 1477 1477 1479 1480 1481 1483 1485 1486 1487 1489 1490 1491 1492 1493 1494 1495 1496 1496 1497 1497 1498 1499 1500 1501 1502 1502 1503 1503 1504 1504 1504 1504 1504 1504 1503 1503 1502 1501 1500 1499 1498 1497 1495 1493 1492 1491 1489 1488 1486 1484 1481 1478 1476 1475 1475 1473 1471 1469 1468 1465 1464 1462
1475 1474 1474 1474 1475 1475 1474 1474 1475 1475 1474 1474 1474 1473 1474 1474 1475 1475 1475 1476 1477 1478 1478 1479 1480 1481 1482 1484 1485 1486 1487 1488 1489 1490 1491 1492 1493 1494 1495 1495 1496 1497 1497 1498 1499 1500 1501 1501 1502 1502 1502 1503 1503 1503 1503 1503 1503 1502 1502 1501 1500 1499 1498 1497 1496 1494 1493 1492 1490 1489 1487 1485 1483 1480 1478 1477 1476 1475 1473 1471 1469 1467 1465 1464 1463
1476 1476 1476 1476 1476 1476 1476 1476 1476 1477 1477 1477 1476 1476 1476 1477 1477 1477 1477 1478 1479 1479 1480 1481 1482 1483 1484 1485 1486 1487 1488 1489 1490 1490 1491 1492 1493 1494 1495 1495 1496 1497 1498 1498 1499 1500 1500 1501 1501 1501 1502 1502 1502 1502 1502 1502 1502 1501 1501 1500 1499 1498 1498 1496 1495 1494 1492 1491 1489 1488 1487 1485 1482 1480 1479 1478 1477 1475 1473 1471 1469 1467 1466 1464 1463
1478 1477 1477 1477 1477 1477 1477 1477 1477 1477 1478 1478 1478 1478 1478 1478 1479 1479 1479 1480 1480 1481 1482 1482 1483 1484 1485 1486 1487 1487 1488 1489 1490 1491 1492 1492 1493 1494 1495 1495 1496 1497 1498 1499 1499 1500 1500 1500 1501 1501 1501 1502 1502 1502 1502 1501 1501 1500 1500 1499 1498 1497 1496 1495 1494 1493 1492 1490 1489 1488 1486 1484 1482 1480 1479 1478 1477 1475 1473 1471 1469 1468 1466 1465 1463